Helena, Arkansas, United States (72342)
Lat: 34.53N, Lon: 90.59W
Wx Zone: ARZ058
Local Info
Past Weather Observations for Saturday, March 21, 2015

NOTE: This archive is for the closest National Weather Service station to Helena. Information may differ from the station used for current weather conditions.

Click here for Long-term Archive

Time Weather Temperature Dewpoint Humidity Pressure Winds Precip Visibility
23:55
Overcast
Drizzle
52°F / 11°C 48°F / 9°C 88% 30.09 in
(1019 mb)
SE 9.2 mph
(SE 15 kph)
- 10SM
23:35
Mostly Cloudy
Drizzle
54°F / 12°C 48°F / 9°C 82% 30.09 in
(1019 mb)
SE 5.8 mph
(SE 9 kph)
- 10SM
23:15
Mostly Cloudy
Drizzle
54°F / 12°C 48°F / 9°C 82% 30.09 in
(1019 mb)
SE 6.9 mph
(SE 11 kph)
- 10SM
22:55
Overcast
Light Rain
54°F / 12°C 52°F / 11°C 94% 30.09 in
(1019 mb)
SE 8.1 mph
(SE 13 kph)
- 7SM
22:35
Overcast
Light Rain
54°F / 12°C 52°F / 11°C 94% 30.12 in
(1020 mb)
SSE 4.6 mph
(SSE 7 kph)
- 7SM
22:15
Mostly Cloudy
Light Rain
54°F / 12°C 52°F / 11°C 94% 30.12 in
(1020 mb)
SSE 4.6 mph
(SSE 7 kph)
- 7SM
21:55
Clear
54°F / 12°C 52°F / 11°C 94% 30.12 in
(1020 mb)
S 4.6 mph
(S 7 kph)
- 7SM
21:35
Clear
Fog And Mist
54°F / 12°C 52°F / 11°C 94% 30.12 in
(1020 mb)
SE 4.6 mph
(SE 7 kph)
- 5SM
21:15
Partly Cloudy
Light Rain
54°F / 12°C 52°F / 11°C 94% 30.12 in
(1020 mb)
Calm - 7SM
20:55
Partly Cloudy
Drizzle
54°F / 12°C 52°F / 11°C 94% 30.12 in
(1020 mb)
Calm - 5SM
20:35
Partly Cloudy
Drizzle
54°F / 12°C 52°F / 11°C 94% 30.12 in
(1020 mb)
Calm - 10SM
20:15
Partly Cloudy
Drizzle
54°F / 12°C 52°F / 11°C 94% 30.15 in
(1021 mb)
Calm - 7SM
19:55
Clear
54°F / 12°C 52°F / 11°C 94% 30.15 in
(1021 mb)
Calm - 7SM
19:35
Clear
54°F / 12°C 50°F / 10°C 88% 30.12 in
(1020 mb)
Calm - 10SM
19:15
Clear
54°F / 12°C 52°F / 11°C 94% 30.12 in
(1020 mb)
Calm - 10SM
18:55
Clear
55°F / 13°C 52°F / 11°C 88% 30.12 in
(1020 mb)
Calm - 10SM
18:35
Clear
55°F / 13°C 52°F / 11°C 88% 30.12 in
(1020 mb)
Calm - 10SM
18:15
Clear
55°F / 13°C 50°F / 10°C 82% 30.12 in
(1020 mb)
N 3.5 mph
(N 6 kph)
- 10SM
17:55
Clear
55°F / 13°C 52°F / 11°C 88% 30.12 in
(1020 mb)
N 3.5 mph
(N 6 kph)
- 10SM
17:35
Clear
55°F / 13°C 52°F / 11°C 88% 30.12 in
(1020 mb)
Calm - 10SM
17:15
Clear
55°F / 13°C 50°F / 10°C 82% 30.12 in
(1020 mb)
N 3.5 mph
(N 6 kph)
- 10SM
16:55
Clear
55°F / 13°C 50°F / 10°C 82% 30.12 in
(1020 mb)
NNW 3.5 mph
(NNW 6 kph)
- 10SM
16:35
Clear
55°F / 13°C 50°F / 10°C 82% 30.15 in
(1021 mb)
NW 3.5 mph
(NW 6 kph)
- 10SM
16:15
Clear
55°F / 13°C 50°F / 10°C 82% 30.12 in
(1020 mb)
NNW 3.5 mph
(NNW 6 kph)
- 10SM
15:55
Clear
55°F / 13°C 50°F / 10°C 82% 30.12 in
(1020 mb)
NNW 4.6 mph
(NNW 7 kph)
- 10SM
15:35
Clear
57°F / 14°C 50°F / 10°C 77% 30.12 in
(1020 mb)
NNW 4.6 mph
(NNW 7 kph)
- 10SM
15:15
Clear
57°F / 14°C 50°F / 10°C 77% 30.12 in
(1020 mb)
N 3.5 mph
(N 6 kph)
- 10SM
14:55
Clear
57°F / 14°C 50°F / 10°C 77% 30.12 in
(1020 mb)
N 4.6 mph
(N 7 kph)
- 10SM
14:35
Clear
57°F / 14°C 50°F / 10°C 77% 30.15 in
(1021 mb)
NNW 5.8 mph
(NNW 9 kph)
- 10SM
14:15
Clear
57°F / 14°C 48°F / 9°C 72% 30.15 in
(1021 mb)
N 5.8 mph
(N 9 kph)
- 10SM
13:55
Clear
57°F / 14°C 50°F / 10°C 77% 30.15 in
(1021 mb)
NNW 4.6 mph
(NNW 7 kph)
- 10SM
13:35
Clear
57°F / 14°C 50°F / 10°C 77% 30.15 in
(1021 mb)
NNW 5.8 mph
(NNW 9 kph)
- 10SM
13:15
Clear
57°F / 14°C 50°F / 10°C 77% 30.15 in
(1021 mb)
NNW 5.8 mph
(NNW 9 kph)
- 10SM
12:55
Clear
57°F / 14°C 50°F / 10°C 77% 30.18 in
(1022 mb)
NNW 5.8 mph
(NNW 9 kph)
- 10SM
12:35
Clear
55°F / 13°C 50°F / 10°C 82% 30.18 in
(1022 mb)
NNW 6.9 mph
(NNW 11 kph)
- 10SM
12:15
Clear
55°F / 13°C 50°F / 10°C 82% 30.18 in
(1022 mb)
NNW 5.8 mph
(NNW 9 kph)
- 10SM
11:55
Clear
55°F / 13°C 50°F / 10°C 82% 30.21 in
(1023 mb)
NNW 3.5 mph
(NNW 6 kph)
- 10SM
11:35
Clear
55°F / 13°C 50°F / 10°C 82% 30.18 in
(1022 mb)
NNE 4.6 mph
(NNE 7 kph)
- 10SM
11:15
Clear
55°F / 13°C 50°F / 10°C 82% 30.18 in
(1022 mb)
N 4.6 mph
(N 7 kph)
- 10SM
10:55
Clear
55°F / 13°C 48°F / 9°C 77% 30.21 in
(1023 mb)
N 4.6 mph
(N 7 kph)
- 10SM
10:35
Clear
54°F / 12°C 48°F / 9°C 82% 30.24 in
(1024 mb)
Calm - 10SM
10:15
Clear
54°F / 12°C 48°F / 9°C 82% 30.24 in
(1024 mb)
N 3.5 mph
(N 6 kph)
- 10SM
09:55
Clear
54°F / 12°C 46°F / 8°C 77% 30.24 in
(1024 mb)
Calm - 10SM
09:35
Clear
54°F / 12°C 46°F / 8°C 77% 30.24 in
(1024 mb)
Calm - 10SM
09:15
Clear
54°F / 12°C 46°F / 8°C 77% 30.21 in
(1023 mb)
Calm - 10SM
08:55
Clear
52°F / 11°C 46°F / 8°C 82% 30.21 in
(1023 mb)
Calm - 10SM
08:35
Clear
52°F / 11°C 46°F / 8°C 82% 30.21 in
(1023 mb)
Calm - 10SM
08:15
Clear
50°F / 10°C 46°F / 8°C 88% 30.21 in
(1023 mb)
NE 3.5 mph
(NE 6 kph)
- 10SM
07:55
Clear
50°F / 10°C 46°F / 8°C 88% 30.21 in
(1023 mb)
Calm - 10SM
07:35
Clear
50°F / 10°C 46°F / 8°C 88% 30.18 in
(1022 mb)
Calm - 7SM
07:15
Clear
Fog And Mist
48°F / 9°C 46°F / 8°C 94% 30.18 in
(1022 mb)
Calm - 5SM
06:55
Clear
Fog And Mist
46°F / 8°C 46°F / 8°C 100% 30.18 in
(1022 mb)
Calm - 5SM
06:35
Clear
Fog And Mist
46°F / 8°C 45°F / 7°C 93% 30.18 in
(1022 mb)
Calm - 5SM
06:15
Clear
Fog And Mist
46°F / 8°C 45°F / 7°C 93% 30.18 in
(1022 mb)
Calm - 3SM
05:55
Clear
Fog And Mist
46°F / 8°C 45°F / 7°C 93% 30.18 in
(1022 mb)
Calm - 4SM
05:35
Clear
Fog And Mist
46°F / 8°C 45°F / 7°C 93% 30.18 in
(1022 mb)
Calm - 4SM
05:15
Clear
Fog And Mist
46°F / 8°C 45°F / 7°C 93% 30.18 in
(1022 mb)
Calm - 5SM
04:55
Clear
Fog And Mist
46°F / 8°C 45°F / 7°C 93% 30.18 in
(1022 mb)
N 4.6 mph
(N 7 kph)
- 5SM
04:35
Clear
Fog And Mist
46°F / 8°C 45°F / 7°C 93% 30.18 in
(1022 mb)
N 4.6 mph
(N 7 kph)
- 5SM
04:15
Clear
Fog And Mist
46°F / 8°C 45°F / 7°C 93% 30.18 in
(1022 mb)
Calm - 5SM
03:55
Clear
46°F / 8°C 45°F / 7°C 93% 30.18 in
(1022 mb)
Calm - 7SM
03:35
Clear
48°F / 9°C 45°F / 7°C 87% 30.15 in
(1021 mb)
Calm - 7SM
03:15
Clear
48°F / 9°C 45°F / 7°C 87% 30.15 in
(1021 mb)
NE 3.5 mph
(NE 6 kph)
- 7SM
02:55
Clear
48°F / 9°C 45°F / 7°C 87% 30.15 in
(1021 mb)
Calm - 7SM
02:35
Clear
Fog And Mist
48°F / 9°C 46°F / 8°C 94% 30.15 in
(1021 mb)
Calm - 5SM
02:15
Clear
Fog And Mist
48°F / 9°C 46°F / 8°C 94% 30.18 in
(1022 mb)
Calm - 5SM
01:55
Clear
Fog And Mist
48°F / 9°C 45°F / 7°C 87% 30.18 in
(1022 mb)
NE 4.6 mph
(NE 7 kph)
- 5SM
01:35
Clear
Fog And Mist
48°F / 9°C 46°F / 8°C 94% 30.18 in
(1022 mb)
NE 5.8 mph
(NE 9 kph)
- 5SM
01:15
Clear
Fog And Mist
48°F / 9°C 46°F / 8°C 94% 30.18 in
(1022 mb)
NE 6.9 mph
(NE 11 kph)
- 5SM
00:55
Clear
Fog And Mist
48°F / 9°C 46°F / 8°C 94% 30.18 in
(1022 mb)
NE 5.8 mph
(NE 9 kph)
- 5SM
00:35
Clear
48°F / 9°C 46°F / 8°C 94% 30.18 in
(1022 mb)
NNE 6.9 mph
(NNE 11 kph)
- 7SM
00:15
Clear
48°F / 9°C 45°F / 7°C 87% 30.21 in
(1023 mb)
NNE 4.6 mph
(NNE 7 kph)
- 7SM
Time Weather Temperature Dewpoint Humidity Pressure Winds Precip Visibility


Weather for websites

WeatherForYou.com, LLC is not responsible for any damages or problems caused by this service. Current weather conditions are obtained from the closest station including government and personal stations which may have varying degrees of accuracy. Weather forecasts are derived from the NOAA NDFD. Like all things, this site belongs to Jesus Christ... He just trusts me to maintain it. If you have any questions or comments email webmaster@weatherforyou.com

Copyright © 2015, WeatherForYou.com LLC. All rights reserved.